Regional Weather Roundup
Issued by NWS

Home | Current Version | Previous Version | Text Only | Print | Product List | Glossary Off
Versions: 1 2 3 4 5 6 7 8 9 10 11 12 13 14 15 16 17 18 19 20 21 22 23 24 25 26 27 28 29 30 31 32 33 34 35 36 37 38 39 40 41 42 43 44 45 46 47 48 49 50

951
ASUS45 KTFX 262310
RWRMT
MONTANA REGIONAL WEATHER ROUNDUP
NATIONAL WEATHER SERVICE GREAT FALLS MT
500 PM MDT MON JUN 26 2017

NOTE: "FAIR" INDICATES FEW OR NO CLOUDS BELOW 12000 FEET WITH NO
SIGNIFICANT WEATHER AND/OR OBSTRUCTIONS TO VISIBILITY.

MTZ001>007-043-270000-
WEST OF THE DIVIDE

CITY           SKY/WX    TMP DP  RH WIND       PRES   REMARKS
KALISPELL      CLOUDY    80  50  34 N10G17    29.84F
MISSOULA       SUNNY     94  44  17 W7        29.80F HX  90
BUTTE          SUNNY     87  32  14 W8G17     29.98F
MULLAN PASS    MOSUNNY   76  42  29 CALM      30.05F
ANACONDA         N/A     90  30  12 NW7G21    29.92F
DEER LODGE       N/A     88  41  19 NW9       29.91F
EUREKA           N/A     82  46  28 CALM      29.81F
HAMILTON         N/A     93  37  14 CALM      29.81F
$$

MTZ008-052>055-270000-
SOUTHWEST MONTANA

CITY           SKY/WX    TMP DP  RH WIND       PRES   REMARKS
BOZEMAN        SUNNY     91  27  10 W14G22    29.90F
DILLON         SUNNY     83  43  24 SW14G20   29.95F
W YELLOWSTONE  CLOUDY    79  30  17 SW13G20   30.14F
ENNIS          MOSUNNY   84  39  20 S25G36    30.05S
THREE FORKS      N/A     92  36  14 S1        29.89F
$$

MTZ009-010-012-014-046-048-049-054-270000-
EAST SLOPES AND CENTRAL MONTANA

CITY           SKY/WX    TMP DP  RH WIND       PRES   REMARKS
CUT BANK       PTSUNNY   80  48  32 NW12      29.81F
GREAT FALLS    MOSUNNY   94  39  14 SW15      29.78F HX  90
MALMSTROM AFB  CLOUDY    93  39  15 SW16G23   29.77F
HELENA         SUNNY     97  34  11 W18G28    29.82F HX  91
CHOTEAU          N/A     90  41  18 W7G14     29.83F
$$

MTZ011-013-016-021-045-047-050-051-270000-
NORTH CENTRAL MONTANA

CITY           SKY/WX    TMP DP  RH WIND       PRES   REMARKS
HAVRE          SUNNY     97  35  11 S6        29.72F HX  92
LEWISTOWN      MOSUNNY   89  45  21 S16G23    29.86F
N BAR RANCH      N/A     88  39  18 S16       29.94F
CHINOOK          N/A     99  37  12 S9G17     29.71F HX  93
FORT BENTON      N/A     93  41  16 MISG      29.72F
$$

MTZ017>020-022>027-061-062-270000-
NORTHEAST MONTANA

CITY           SKY/WX    TMP DP  RH WIND       PRES   REMARKS
GLASGOW        PTSUNNY   89  32  13 SE22G28   29.86F
JORDAN           N/A     89  31  12 S18G26    29.86F
SIDNEY         CLOUDY    85  38  18 SE13      29.95F
WOLF POINT     MOSUNNY   90  35  14 S14G22    29.89F
MALTA          SUNNY     91  37  15 S16G24    29.78F
PLENTYWOOD       N/A     82  37  20 S18       29.96F
POPLAR           N/A     84  37  18 SE9G20    29.91F
$$

MTZ028>42-056>058-270000-
SOUTHCENTRAL AND SOUTHEAST MONTANA

CITY           SKY/WX    TMP DP  RH WIND       PRES   REMARKS
BAKER          CLOUDY    82  35  18 SE18G26   30.01F
BILLINGS       MOSUNNY   92  36  14 SE9       29.88F
LIVINGSTON     PTSUNNY   85  45  24 S8        29.91F
MILES CITY     PTSUNNY   90  31  12 SE15G23   29.90F
BIG TIMBER     SUNNY     84  37  18 S18       29.96F
FORSYTH          N/A     91  36  14 S6        29.87F
$$

REGIONAL REPORTS...DAKOTAS

CITY           SKY/WX    TMP DP  RH WIND       PRES   REMARKS
WILLISTON      MOSUNNY   82  41  23 S12       29.98F
MINOT          SUNNY     76  39  26 MISG      30.05F
DICKINSON      MOSUNNY   79  27  14 S14G20    30.03F
BEACH            N/A     82  30  15 SE9G18    30.03F
CROSBY           N/A     77  43  29 S12G18    30.00F
TIOGA            N/A     75  41  29 S16       30.02F
WATFORD CITY     N/A     77  43  29 S8G16     29.98F
BISMARCK       SUNNY     77  43  29 SE7       30.09F
GRAND FORKS    MOSUNNY   75  41  29 NW10      30.08F
FARGO          MOSUNNY   74  37  26 W10       30.10F
BUFFALO SD       N/A     83  36  18 SE14G22   29.99F
RAPID CITY     SUNNY     81  39  22 S14G23    30.08F
$$

REGIONAL REPORTS...WYOMING/IDAHO/WASHINGTON

CITY           SKY/WX    TMP DP  RH WIND       PRES   REMARKS
GILLETTE       SUNNY     87  37  17 SE20G25   30.02F
SHERIDAN       SUNNY     88  42  20 SE10      29.96F
BUFFALO WY     SUNNY     85  38  18 SE9       30.04F
CODY           SUNNY     90  30  11 SE14G20   29.98F
YELLOWSTONE LA   N/A     76  25  15 VRB5      30.25F
IDAHO FALLS    SUNNY     90  41  18 VRB5      29.98F
SALMON         MOSUNNY   88  52  29 N9        29.84F
BOISE          PTSUNNY   95  50  21 N16       29.77F HX  92
SPOKANE        MOSUNNY   89  48  24 SW9       29.80F
$$

REGIONAL REPORTS...ALBERTA

CITY           SKY/WX    TMP DP  RH WIND       PRES   REMARKS
EDMONTON       SUNNY     82  57  42 SE6       29.61F
CALGARY        PTSUNNY   88  39  18 S6        29.69F
LETHBRIDGE     CLOUDY    84  52  32 W22G28    29.73F
MEDICINE HAT   CLOUDY    88  50  27 S15       29.67F
WATERTON GATE    N/A     75  48  38 SW13G20     N/A
CARDSTON         N/A     73  46  38 W20G30      N/A
MILK RIVER       N/A     86  50  28 W15G23      N/A
ONEFOUR          N/A     91  37  15 SW13G20     N/A
$$

REGIONAL REPORTS...SASKATCHEWAN

CITY           SKY/WX    TMP DP  RH WIND       PRES   REMARKS
SWIFT CURRENT  SUNNY     82  45  26 S22G30    29.79F
REGINA         PTSUNNY   77  45  31 SE21G29   29.91F
SASKATOON      PTSUNNY   79  48  34 SE20G28   29.82F
CYPRESS HILLS    N/A     82  39  21 S13G20      N/A
VAL MARIE        N/A     88  32  13 S23G32      N/A
ROCKGLEN         N/A     81  36  19 S20G26      N/A
ASSINIBOIA       N/A     82  52  34 S9          N/A
$$




USA.gov is the U.S. government's official web portal to all federal, state and local government web resources and services.